GFSGBSN_925_rhum_000.txt.gz
RH
70 68 74 68 68 78 84 84 88 94 100 95 87 85 93 91 92 86 90 93 90 87 78 82 81 82 94 92 86 59 69 72 80 85 81 71 88 78 80 76 70 82 79 68 63 65 68
68 67 67 67 70 71 77 87 88 90 92 99 94 81 84 89 90 86 87 86 96 88 88 75 81 86 85 96 54 59 64 62 81 83 88 84 87 83 83 82 75 69 71 71 62 66 64
68 66 66 68 66 70 76 84 88 88 91 98 99 88 84 88 89 86 81 80 82 71 78 76 78 85 92 80 55 55 52 56 56 62 83 85 79 85 85 87 71 72 80 73 67 61 64
66 65 64 64 60 61 71 78 76 82 87 92 95 98 88 90 87 91 75 75 85 92 87 82 80 89 94 61 63 58 54 48 52 54 53 62 70 80 84 70 68 75 78 92 62 64 61
64 64 64 61 60 62 60 59 73 81 79 87 93 97 97 89 95 90 76 75 82 79 81 90 83 80 88 62 68 52 56 51 53 53 51 49 48 61 65 82 83 84 91 86 70 56 61
70 62 60 59 57 59 56 55 67 75 76 81 88 92 98 90 99 94 78 82 84 83 91 84 86 89 76 68 61 59 60 51 54 57 56 56 68 81 83 86 94 86 86 72 67 59 67
63 60 61 60 58 57 57 56 65 80 74 74 85 90 85 99 95 96 85 90 89 93 93 84 80 75 61 61 57 62 62 58 60 65 85 71 94 88 76 76 72 85 91 93 75 59 67
60 63 61 70 67 63 56 55 69 74 79 78 84 93 90 98 98 98 83 84 77 65 93 84 84 80 68 63 71 66 60 71 75 90 79 81 90 77 71 76 79 83 86 85 75 60 62
76 69 68 73 71 64 60 58 58 76 78 87 87 95 93 94 100 100 84 76 67 66 83 76 82 83 76 66 72 76 64 73 83 94 85 87 67 66 76 82 87 90 92 86 84 63 55
80 71 72 72 68 63 64 62 71 81 86 82 90 93 96 86 100 99 90 75 70 60 90 70 97 85 80 67 78 59 60 70 80 87 88 93 74 74 79 84 83 93 77 77 79 84 94
74 66 68 74 66 71 70 78 87 88 92 99 91 95 98 83 100 94 85 77 68 54 88 72 93 66 74 70 65 78 59 62 89 87 80 78 84 85 84 76 73 72 69 77 79 89 90
82 79 81 80 71 73 72 83 82 96 96 95 99 99 98 91 100 87 84 77 67 83 88 91 86 91 91 77 71 76 68 58 62 74 76 74 69 73 75 64 64 61 72 73 75 78 93
85 83 84 83 78 73 72 74 71 95 98 99 98 99 98 89 99 87 85 80 94 90 70 90 80 84 79 84 79 79 81 89 93 99 98 96 90 75 74 79 72 72 79 97 99 97 87
83 84 83 84 80 78 76 66 68 88 95 98 98 94 91 87 95 92 81 89 91 67 83 72 67 74 84 78 73 82 89 94 82 92 99 97 95 89 76 74 83 79 75 91 88 92 84
86 85 83 80 80 75 67 65 68 87 96 98 91 96 97 74 100 86 80 85 78 69 79 88 77 84 86 79 78 85 88 80 68 91 97 96 93 79 80 69 66 97 96 67 72 61 88
78 83 82 77 81 76 66 68 73 81 90 92 100 97 98 79 100 87 79 81 66 66 78 76 88 79 86 83 90 95 83 68 72 73 73 81 96 77 80 71 68 88 73 97 96 96 93
80 86 79 75 81 76 70 68 77 83 94 98 93 97 89 66 93 96 98 82 68 76 71 77 80 85 67 72 80 85 70 65 71 70 76 87 95 88 92 94 82 92 98 96 77 87 92
84 84 78 76 81 73 67 69 82 88 88 91 97 97 99 100 98 98 94 68 60 90 79 76 70 66 75 83 95 89 86 72 66 76 87 80 98 95 85 72 64 64 70 75 86 84 84
84 81 74 78 78 75 65 73 82 93 96 97 98 96 100 85 100 99 79 72 71 92 92 85 83 72 72 81 87 89 80 60 69 78 87 80 99 98 95 88 84 94 79 64 66 77 83
83 82 74 76 80 78 65 71 85 96 86 100 96 100 98 97 90 76 76 77 79 66 76 73 77 75 82 86 82 82 83 62 68 70 65 68 100 97 86 94 96 99 88 78 74 94 74
81 80 73 75 78 76 67 71 88 98 82 100 94 98 91 99 97 73 67 75 80 82 75 74 85 80 90 99 89 92 77 69 70 64 76 92 100 100 94 81 99 100 97 85 93 77 76
80 79 76 78 77 72 67 71 87 94 92 96 99 95 89 86 74 73 78 87 82 76 82 86 87 76 86 96 79 71 77 76 80 72 81 92 98 100 98 96 96 100 95 97 94 73 66
82 79 79 76 80 69 71 71 82 97 95 94 91 94 75 79 82 81 82 80 76 73 73 77 81 87 90 80 74 70 63 71 72 78 96 98 100 100 94 92 98 98 89 80 77 79 61
82 82 73 77 79 72 72 74 82 96 99 98 91 99 93 93 80 75 74 70 82 79 79 80 77 86 69 71 70 75 82 82 82 80 79 98 100 100 98 100 98 79 76 70 73 70 64
81 79 75 76 80 75 74 75 82 93 98 100 99 100 97 91 73 72 78 81 73 79 86 85 75 74 74 83 95 91 87 86 82 85 87 80 99 100 100 99 81 84 84 77 79 77 60
80 76 77 78 79 80 76 80 82 91 94 98 94 100 99 90 83 62 75 84 95 95 94 89 77 85 88 96 94 86 92 76 86 82 82 90 82 98 92 98 73 56 84 81 74 95 65
72 77 77 78 78 81 78 82 81 87 92 96 98 100 100 93 83 74 78 84 83 87 89 88 86 91 87 95 96 98 96 74 92 88 84 93 96 96 88 84 78 58 59 71 88 64 60
81 73 80 82 82 82 80 82 78 84 90 96 90 98 100 97 86 70 74 89 88 84 88 92 93 98 99 99 99 98 99 90 86 72 85 89 88 86 91 91 72 56 60 71 58 57 62
84 85 84 84 82 83 80 82 79 79 91 93 92 84 100 100 89 86 73 67 67 68 84 91 89 93 92 97 94 90 94 93 87 88 78 90 75 77 78 72 57 56 58 57 60 64 65

GFSGBSN_925_rhum_003.txt.gz
RH
71 70 69 69 69 67 66 78 81 80 86 92 97 99 96 91 92 89 87 89 85 80 88 71 73 77 94 92 83 62 70 73 77 88 73 76 82 72 75 75 70 83 78 70 65 66 66
69 69 69 69 67 65 65 62 71 77 80 85 91 97 99 91 87 88 88 83 80 88 90 80 76 84 83 95 61 65 65 73 85 82 79 72 86 79 78 80 73 69 72 69 63 60 61
68 69 68 68 66 63 64 65 61 59 75 80 85 98 95 95 90 95 89 77 72 83 89 84 72 81 86 78 56 54 56 58 67 77 90 84 77 81 84 89 73 72 78 69 65 59 58
67 66 63 64 62 63 62 61 60 58 64 78 76 84 97 98 94 97 86 77 71 88 88 80 82 80 90 64 65 58 54 49 51 58 57 74 77 81 84 74 67 74 75 86 61 61 58
64 64 65 60 68 67 66 62 61 58 64 76 78 76 88 87 100 96 93 78 77 89 77 94 82 75 84 63 72 62 55 49 52 54 51 55 52 62 75 82 81 82 82 88 69 57 56
64 64 63 64 68 69 70 66 62 60 60 72 71 74 84 93 92 99 100 85 82 87 91 92 86 85 77 67 65 64 56 50 55 58 57 60 72 82 83 84 74 80 96 78 71 58 62
75 85 72 68 75 68 65 64 62 61 62 62 74 78 87 91 92 98 100 96 93 96 95 84 79 76 66 63 60 65 61 58 60 66 85 74 91 94 80 78 67 81 86 81 66 60 68
73 73 70 69 71 70 72 66 64 65 63 71 80 87 88 92 92 96 100 89 73 60 94 86 85 81 73 64 73 68 61 71 74 89 81 84 90 73 70 74 77 78 82 78 58 63 63
73 74 68 68 69 72 75 69 70 76 82 85 90 85 87 90 94 100 98 82 55 45 72 74 84 85 76 67 73 78 64 75 83 93 89 89 73 67 73 82 78 71 76 65 66 64 60
73 75 79 76 77 80 78 72 75 82 90 91 95 78 94 90 90 90 96 84 65 40 83 68 92 87 79 66 73 61 60 69 81 86 72 75 66 76 88 89 81 84 73 75 78 84 83
81 80 79 80 80 81 83 73 77 84 85 95 95 97 95 88 86 96 90 75 60 49 75 73 93 68 75 72 64 78 60 59 89 88 86 77 84 94 84 80 76 74 69 75 80 88 92
78 80 80 82 85 81 84 75 77 72 89 91 89 93 97 87 96 91 96 86 69 84 84 92 90 94 90 78 77 74 71 57 62 74 76 73 68 70 73 68 67 64 74 71 74 78 92
76 79 79 81 84 82 83 79 71 67 77 88 90 92 97 98 79 73 100 93 98 92 68 97 90 91 77 86 82 77 83 88 91 99 95 76 77 76 72 77 73 70 98 94 95 96 81
70 76 79 83 84 82 84 75 68 68 70 82 91 99 91 98 78 99 92 98 97 71 81 66 65 82 86 69 74 81 83 90 80 91 92 96 87 75 76 70 80 82 80 91 88 83 72
69 69 83 84 81 82 81 73 68 68 79 85 99 96 96 100 81 92 96 98 82 73 80 74 69 84 88 74 71 77 86 85 74 84 96 97 90 77 81 72 63 99 97 68 95 87 93
70 76 85 81 77 85 80 75 65 80 86 91 97 94 99 89 83 94 98 98 68 74 72 71 87 73 83 83 90 86 87 74 73 69 66 78 93 77 79 73 72 81 78 96 97 95 90
81 80 82 77 77 84 80 75 69 80 92 98 92 92 87 76 95 97 100 92 70 75 68 75 81 86 75 82 84 94 77 62 73 80 73 81 96 88 90 91 80 93 98 100 98 96 87
81 79 80 78 79 78 82 73 71 85 94 92 95 98 91 91 98 99 100 69 64 83 77 78 69 71 76 73 85 84 81 68 66 80 93 78 90 98 83 70 65 64 72 72 90 88 88
82 78 79 77 80 81 80 68 76 87 97 98 97 95 94 81 99 100 88 78 75 90 88 78 80 75 74 81 90 86 82 64 74 75 87 85 99 97 88 87 77 97 80 71 69 77 86
82 80 79 79 79 83 70 72 77 87 98 100 96 100 99 94 91 90 80 82 81 72 86 78 81 76 84 87 75 87 87 66 69 72 66 71 94 94 77 78 98 99 82 85 96 94 74
83 83 82 77 78 83 72 76 77 84 91 100 98 99 90 99 98 76 72 73 85 85 74 74 82 76 81 93 88 97 89 76 74 70 74 84 98 97 93 79 94 100 95 86 98 81 79
84 83 82 77 74 82 72 79 77 83 96 95 99 95 90 95 81 70 79 78 78 78 81 87 83 74 79 89 70 82 78 80 75 78 84 86 99 100 97 94 97 99 98 92 84 78 74
82 82 80 78 74 83 74 77 79 84 98 93 92 91 94 81 79 78 83 80 82 74 72 78 77 79 87 80 68 69 68 68 72 75 87 98 99 100 91 90 100 97 93 94 88 78 76
78 78 77 78 80 80 80 80 83 87 96 99 95 100 96 94 77 73 72 71 78 76 83 82 78 86 74 75 75 84 86 94 89 84 75 98 100 100 97 98 98 94 74 70 75 62 68
79 69 73 79 78 81 82 82 83 86 90 100 99 99 99 92 75 71 75 72 68 74 83 81 78 74 73 85 92 97 93 91 90 90 90 83 98 100 100 100 88 63 72 78 79 77 59
81 82 78 82 82 83 84 82 82 84 87 95 99 100 100 97 85 61 72 81 93 93 94 87 84 88 88 96 96 100 93 78 85 79 92 87 88 100 100 98 94 52 82 65 69 73 61
82 82 83 84 85 82 84 81 84 82 86 92 96 99 99 99 84 70 82 89 83 88 89 86 86 90 89 95 100 100 94 73 89 85 95 98 98 99 97 96 80 62 65 71 77 67 65
81 80 81 82 82 83 81 81 88 84 86 91 84 94 99 98 90 76 79 88 88 87 89 87 94 96 99 99 99 99 90 90 89 72 86 87 97 96 92 94 76 60 74 80 61 61 64
80 81 83 84 84 82 80 83 84 82 83 90 88 79 91 99 95 89 79 73 66 69 84 89 87 88 92 98 97 94 97 90 89 88 79 93 75 78 81 71 56 59 63 59 64 68 64

GFSGBSN_925_rhum_006.txt.gz
RH
70 71 70 69 69 66 66 68 69 66 63 68 81 84 96 97 97 90 94 91 90 92 82 77 72 75 96 84 77 64 70 72 82 84 73 64 56 48 53 48 53 59 44 48 46 53 49
70 67 68 65 67 66 67 64 65 63 62 62 70 79 89 97 97 95 91 85 93 96 87 86 69 79 70 83 64 66 63 75 75 80 70 67 59 52 52 51 53 49 55 51 48 46 44
67 66 67 67 65 70 71 69 68 65 62 59 68 83 80 87 97 98 94 94 92 94 86 86 73 82 70 49 55 54 60 63 71 74 73 74 64 59 56 61 57 55 60 44 42 43 46
66 67 68 64 66 69 72 72 70 66 66 59 61 79 79 79 95 94 99 98 79 89 89 88 74 75 58 65 66 54 54 53 61 63 71 74 73 59 56 59 53 58 57 58 41 44 39
72 76 84 68 65 70 70 72 70 66 65 63 67 66 77 76 90 92 100 100 81 84 85 95 78 62 65 67 67 61 52 50 51 51 57 64 49 51 58 58 57 54 49 58 46 40 43
76 69 74 78 74 78 73 74 74 68 65 66 70 68 71 84 89 88 96 100 94 97 94 90 84 77 67 59 64 65 57 50 48 50 53 54 57 60 58 62 49 42 58 48 43 39 47
69 76 80 79 78 73 72 82 80 73 68 72 77 76 82 89 88 93 86 99 99 96 79 60 63 59 60 62 62 60 53 50 47 51 65 62 73 76 53 52 43 47 51 50 42 41 50
73 80 82 80 81 76 80 78 79 77 70 81 91 92 87 84 91 92 99 96 69 58 85 69 63 63 65 58 64 61 54 53 56 63 60 71 81 50 50 51 57 54 54 50 41 39 46
82 82 80 83 86 81 85 78 80 79 80 89 80 86 80 93 86 89 97 95 70 67 66 86 70 68 63 59 59 66 52 55 58 68 66 62 57 54 59 61 65 58 59 54 53 43 42
80 74 77 83 81 84 84 82 83 81 78 90 83 94 89 93 84 78 81 78 92 86 98 79 85 71 64 57 65 54 50 53 66 62 63 62 48 63 63 64 57 62 45 51 59 61 63
79 80 80 78 83 83 86 82 85 83 82 79 86 91 89 90 98 77 79 72 99 82 96 68 84 66 60 55 59 73 55 54 65 65 65 60 70 73 76 65 57 58 52 53 54 60 62
73 77 71 84 82 85 83 83 84 78 74 74 78 88 91 89 87 80 87 97 87 98 94 89 86 90 87 64 68 69 67 51 50 60 63 55 53 55 54 55 56 52 58 58 57 62 87
70 70 78 81 84 83 79 86 79 75 67 70 83 90 88 88 91 83 96 94 99 97 64 95 84 81 71 72 77 69 80 83 76 95 92 65 64 57 54 62 58 59 71 73 82 90 63
80 85 84 83 81 74 83 83 77 71 68 80 88 100 99 100 94 94 99 99 97 75 62 61 70 67 70 64 77 72 82 90 68 71 76 78 69 62 60 62 56 66 62 64 58 43 40
80 85 82 81 74 76 82 80 82 70 75 84 93 94 99 99 92 95 97 99 91 58 59 66 74 79 80 60 64 72 76 68 58 64 86 86 80 59 59 54 56 71 91 55 75 68 89
80 80 80 77 75 81 82 82 70 71 83 91 86 87 88 96 99 93 98 100 76 59 54 55 69 57 70 70 69 67 72 56 58 56 49 62 83 55 56 63 61 66 57 87 95 82 69
77 83 77 75 80 82 83 69 68 80 85 99 84 95 88 93 86 97 100 100 76 57 52 60 66 64 56 67 62 62 60 54 54 59 54 58 66 72 76 82 62 82 91 95 77 75 67
76 84 81 77 82 83 86 68 78 80 88 92 91 100 94 97 98 98 100 93 66 68 67 63 54 55 57 62 68 64 64 53 46 60 76 59 72 88 71 44 45 45 57 62 94 88 88
80 82 82 80 80 82 82 73 79 83 93 99 96 95 89 98 99 100 90 86 77 75 74 66 68 58 56 62 73 60 60 51 54 58 61 62 97 87 69 70 60 73 59 59 92 92 88
78 80 81 79 75 80 80 75 83 86 96 99 99 100 96 93 76 79 68 74 80 69 76 66 69 64 64 65 61 70 69 60 53 54 60 59 68 87 67 68 61 100 73 87 97 93 65
82 78 79 79 77 82 82 80 85 88 92 92 95 98 88 100 80 60 60 68 74 75 70 64 70 62 64 70 72 73 67 64 62 62 62 65 100 91 76 69 78 92 92 95 99 76 79
72 72 72 74 76 78 82 82 84 89 83 90 98 99 72 83 66 60 72 67 68 76 66 72 69 67 64 64 65 69 69 69 62 60 66 70 92 99 97 79 77 96 94 96 96 84 64
79 82 77 80 78 82 83 81 84 88 90 93 91 91 88 90 79 61 69 64 64 62 67 71 64 71 73 70 60 57 56 57 61 63 72 88 100 100 89 64 70 97 96 95 95 83 67
82 81 81 80 82 82 83 81 84 86 93 98 96 98 92 97 73 60 61 64 63 59 78 72 72 76 68 67 70 77 71 86 80 68 61 86 100 100 98 86 94 73 77 80 84 82 66
82 78 80 82 85 83 84 82 86 85 91 95 100 100 98 85 66 62 60 59 68 68 71 71 72 62 66 72 89 90 91 88 74 76 75 68 84 100 99 98 65 55 63 82 76 62 51
80 79 78 79 80 82 82 81 89 84 89 83 99 92 98 99 72 54 64 61 64 66 78 73 81 82 85 90 90 96 75 62 69 78 80 76 80 98 98 96 79 53 55 60 60 66 51
81 80 80 80 81 82 80 83 88 82 85 91 87 86 98 99 72 60 65 71 70 74 89 88 90 91 84 84 97 92 83 63 68 69 86 92 98 97 97 94 63 51 54 68 62 61 54
82 81 81 79 75 75 76 78 78 79 80 88 90 91 92 98 88 77 66 72 77 68 72 79 85 93 97 98 91 84 89 68 74 60 69 66 81 88 77 77 77 51 60 56 50 52 55
82 82 82 79 77 75 74 72 74 79 80 85 85 88 84 98 92 92 84 75 65 60 78 80 82 81 83 93 91 93 84 76 70 66 62 74 60 58 60 52 46 48 51 48 52 56 56

GFSGBSN_925_rhum_009.txt.gz
RH
68 69 69 71 66 69 72 70 70 69 65 64 63 64 79 82 89 97 99 96 100 93 96 86 71 67 89 96 82 65 68 72 79 81 62 52 48 43 47 38 37 43 39 28 30 34 35
69 68 71 71 68 70 70 72 73 68 68 67 64 59 70 79 81 87 98 99 99 93 96 86 68 73 75 89 65 60 54 61 57 74 63 56 52 40 45 39 44 36 39 37 36 37 37
73 73 77 75 72 67 72 70 72 73 71 65 65 64 64 70 74 81 94 99 98 97 94 90 68 78 58 54 48 52 55 54 60 67 66 63 63 55 46 51 40 45 52 40 36 36 38
78 79 76 72 76 70 74 75 77 75 72 69 68 66 68 69 73 78 88 98 97 96 87 94 67 64 54 58 49 49 51 56 60 60 59 65 65 54 50 47 47 51 45 50 32 33 30
74 75 73 78 75 80 84 80 79 81 77 73 69 70 75 72 71 79 89 96 94 98 86 92 74 59 54 63 57 46 46 50 49 54 59 60 61 51 49 54 47 45 47 42 37 29 33
77 77 79 82 84 77 84 86 85 76 78 76 70 75 84 83 80 87 93 96 91 98 94 90 75 69 54 54 54 51 46 46 44 44 50 48 48 52 51 49 51 42 48 38 34 25 35
83 80 85 82 80 84 89 90 85 78 83 82 83 86 85 88 84 93 89 91 99 100 95 63 59 50 52 53 57 52 45 45 43 47 60 56 68 67 45 42 40 38 39 35 28 25 34
76 69 78 79 79 82 90 84 80 82 84 84 86 78 92 79 83 85 90 94 95 86 94 55 50 49 50 49 60 50 44 49 55 65 51 73 80 47 39 40 43 44 45 41 32 29 34
76 80 80 78 76 83 83 86 83 84 86 84 86 77 91 93 75 76 75 84 99 90 84 74 54 56 57 52 51 60 44 43 51 54 53 61 48 45 45 50 51 45 47 43 41 35 35
81 66 69 72 80 84 86 86 82 86 86 84 85 77 78 86 74 82 73 79 92 94 100 97 85 60 58 50 59 47 43 45 53 54 53 55 40 50 48 53 45 52 35 38 45 51 52
77 75 85 86 83 85 86 84 84 86 85 80 74 80 90 90 82 75 75 91 86 92 97 87 77 51 52 50 56 61 43 51 54 50 50 55 55 55 59 50 43 50 47 47 48 54 56
76 84 86 85 83 81 79 84 81 80 78 73 73 81 87 78 78 73 80 92 83 99 97 97 83 81 73 50 59 58 58 46 40 48 49 44 42 47 47 44 45 46 51 53 52 64 80
79 84 82 79 76 76 81 83 80 78 73 76 86 91 95 85 78 69 86 94 99 97 78 94 77 74 70 64 66 70 72 72 68 90 78 59 54 48 44 55 50 53 66 68 78 91 64
80 86 84 79 76 80 83 83 75 67 80 87 93 77 92 96 98 80 94 100 97 78 69 56 72 68 79 62 57 58 66 75 53 53 63 76 74 56 53 55 53 62 58 58 53 40 34
85 86 88 82 78 81 83 84 67 82 84 89 94 83 81 100 96 91 98 93 75 65 56 69 67 79 79 62 67 62 60 65 51 50 76 69 70 46 47 46 47 58 77 48 69 53 65
85 84 86 83 78 84 86 74 72 77 86 94 99 83 82 88 84 93 99 100 95 46 49 52 67 61 74 65 75 63 62 48 55 46 42 54 74 48 46 51 49 54 46 83 91 79 56
83 87 83 82 78 77 89 69 80 86 93 97 97 91 98 96 83 95 95 100 80 45 46 52 53 54 53 57 52 57 56 48 41 46 43 48 55 68 65 69 52 66 75 90 62 70 74
83 87 81 84 81 84 86 76 85 89 98 95 85 99 99 82 98 97 100 95 70 56 60 52 44 41 44 46 50 47 49 45 40 44 60 48 62 80 64 42 39 44 58 58 90 68 80
76 79 72 82 79 81 81 80 85 91 98 99 85 94 91 98 99 100 95 90 60 70 68 54 54 44 40 46 56 47 47 42 41 48 51 52 78 82 77 57 44 54 48 47 62 81 92
71 74 76 80 76 80 81 82 87 93 95 94 96 100 97 96 83 68 95 93 79 71 61 54 54 46 47 49 50 52 56 55 44 46 62 49 61 83 62 69 52 88 72 65 86 96 69
75 82 80 77 79 81 82 83 86 86 94 90 97 94 77 94 81 77 70 73 80 74 58 50 55 49 47 54 54 56 52 56 54 54 52 56 100 80 66 58 64 70 72 72 98 94 96
77 78 80 78 82 80 84 84 85 85 86 89 97 97 82 69 51 50 57 59 62 63 55 56 53 50 48 49 50 60 54 53 56 56 59 64 88 94 92 68 66 80 66 80 91 91 96
79 78 76 80 84 81 84 83 85 86 91 94 89 86 97 87 57 51 55 54 57 56 63 57 54 55 59 58 54 54 51 49 51 56 64 76 97 97 80 54 60 88 84 95 95 84 89
79 79 76 75 77 81 81 85 87 85 92 97 97 98 94 94 55 51 52 53 54 58 67 64 58 60 66 55 60 65 64 64 66 69 65 81 95 95 99 84 92 54 57 67 81 69 59
80 79 78 78 78 81 81 86 88 82 89 94 97 98 97 72 53 52 50 58 52 54 64 68 68 61 61 65 69 73 89 89 73 78 79 62 75 95 98 79 56 58 50 75 91 71 52
82 81 79 79 77 75 78 80 81 82 84 83 93 82 96 99 58 45 50 50 57 58 63 62 72 68 68 82 82 97 91 55 66 86 73 66 69 93 81 94 82 48 48 58 71 67 50
84 82 81 80 79 76 74 74 75 78 82 83 92 82 97 97 64 60 54 55 48 52 82 85 83 85 81 84 88 100 94 56 63 63 80 94 96 94 91 98 62 39 46 59 67 59 50
85 83 83 82 80 79 75 73 73 76 78 81 80 88 84 96 87 66 53 55 65 59 73 76 82 83 87 92 99 97 98 62 62 48 63 68 80 82 82 92 78 42 46 59 51 46 48
81 87 83 83 83 82 79 74 73 74 76 80 76 81 98 95 88 83 78 77 67 54 54 72 75 70 73 90 93 93 97 66 57 61 48 63 47 52 52 50 38 40 45 42 46 50 48

GFSGBSN_925_rhum_015.txt.gz
RH
85 77 73 73 73 74 74 78 79 79 82 80 78 76 73 81 72 70 67 71 78 92 99 94 93 90 76 94 87 70 69 73 76 76 75 74 68 56 60 52 48 49 45 40 39 37 37
71 85 78 83 83 90 84 85 90 94 94 88 84 78 76 73 69 67 73 71 67 92 98 99 90 89 91 91 61 59 62 72 77 72 79 76 56 53 56 54 51 40 43 44 43 45 43
75 79 77 71 83 79 76 79 85 90 91 90 87 73 77 78 79 78 70 73 70 75 95 100 91 87 76 71 61 60 54 59 58 70 75 66 58 60 55 55 51 45 56 55 52 48 48
85 91 80 79 77 72 76 79 78 88 88 84 79 86 84 82 81 80 81 80 77 80 93 99 94 87 87 50 53 58 56 54 54 60 62 64 58 57 56 48 50 56 57 78 53 45 46
85 84 79 79 75 84 85 85 85 85 86 85 86 86 85 83 82 84 86 84 85 86 94 97 99 85 79 54 51 47 53 56 64 68 71 64 63 61 56 61 67 64 81 77 62 40 43
85 80 71 84 89 84 85 82 82 85 85 82 85 86 87 86 85 86 76 86 83 91 81 100 90 85 69 62 52 43 45 53 56 72 86 85 76 71 64 68 84 70 77 57 55 39 38
80 72 80 87 85 79 77 77 77 80 81 83 84 85 86 88 87 76 83 75 96 98 99 89 76 66 55 51 50 48 43 49 55 61 71 65 80 85 80 70 60 59 55 60 49 37 38
85 82 79 85 82 81 76 79 78 81 81 84 86 88 86 85 85 87 84 88 87 96 91 77 66 61 54 50 61 53 45 57 69 79 65 75 89 67 55 57 61 57 62 62 49 38 42
76 70 77 85 83 84 79 80 81 79 76 79 84 85 82 78 88 84 77 80 82 80 97 95 81 62 61 53 65 60 51 54 67 71 68 79 60 55 58 59 55 56 59 59 56 47 45
80 73 78 86 85 84 81 78 82 81 77 73 76 80 82 80 76 76 83 84 97 80 100 100 90 62 57 57 69 48 47 51 60 69 69 62 46 51 58 63 53 66 50 53 57 62 71
75 76 86 89 84 82 79 79 85 80 70 74 84 87 92 91 91 84 82 82 87 86 97 98 86 53 59 71 64 59 44 49 61 65 61 78 59 59 57 53 45 56 52 56 57 68 73
71 74 86 90 82 82 76 82 84 73 77 87 90 93 94 94 97 83 80 79 90 97 97 100 84 78 82 66 64 63 56 49 46 52 56 55 45 48 56 46 48 48 55 56 61 74 97
78 82 78 88 82 83 81 85 76 76 86 93 95 98 93 94 90 83 77 90 95 97 96 100 96 77 76 78 74 67 70 75 77 84 86 63 61 49 46 59 51 59 70 94 92 95 90
79 72 72 79 81 76 75 80 72 78 87 91 98 85 79 95 91 78 76 98 97 98 100 86 79 72 80 69 77 70 77 82 68 66 88 89 90 67 56 62 70 71 66 88 86 96 81
83 75 78 82 82 74 81 75 75 84 85 94 80 70 95 98 88 71 89 96 98 100 85 86 91 100 85 68 82 74 75 71 64 64 80 91 79 56 55 50 59 70 83 61 82 75 94
82 72 83 77 82 79 79 77 79 84 89 98 83 84 97 96 72 67 96 98 99 97 78 64 93 83 98 76 82 76 80 60 58 55 53 61 83 57 59 50 52 62 57 85 93 100 94
78 76 72 76 84 82 82 81 81 94 96 73 74 91 88 72 74 93 100 100 94 73 62 66 66 67 71 84 73 71 75 54 52 55 54 50 66 72 63 72 77 72 84 77 78 93 98
79 78 72 79 86 80 83 85 82 99 85 71 85 98 82 90 98 99 100 98 90 81 75 67 47 52 62 76 72 68 67 54 46 47 62 48 71 96 80 62 57 61 71 75 92 81 92
81 79 73 76 74 78 81 89 81 97 97 91 96 94 82 89 100 99 96 88 85 83 67 54 54 46 50 58 69 56 56 46 47 48 60 50 76 92 81 73 59 69 66 64 70 81 84
83 80 76 75 74 76 83 89 82 95 94 77 94 93 87 92 92 91 98 92 92 75 67 54 51 44 50 52 51 58 70 51 48 54 56 50 76 81 85 81 73 88 76 67 72 98 82
86 80 77 77 76 75 78 84 83 78 81 80 97 88 80 96 88 86 87 91 83 80 59 52 55 50 52 60 58 63 66 61 52 58 53 66 92 90 80 76 77 79 76 73 83 80 97
90 81 79 78 79 78 77 79 84 77 74 83 95 99 89 87 83 85 84 86 79 70 75 58 56 60 64 66 63 62 59 67 68 64 63 66 87 96 98 79 80 87 75 73 75 75 74
93 81 81 79 80 81 80 78 80 84 79 93 85 91 97 82 81 83 74 72 66 63 63 67 61 76 83 78 69 68 58 57 58 65 68 83 98 96 92 73 82 92 79 70 76 77 77
92 84 83 81 81 82 82 78 77 81 82 94 87 98 97 94 79 58 55 54 73 70 73 70 71 79 71 60 62 66 67 68 63 62 65 92 95 97 98 90 89 62 56 65 77 76 76
91 96 79 84 82 84 82 80 76 77 80 76 91 93 98 98 83 56 56 59 64 71 72 76 79 76 70 69 83 82 85 85 79 71 75 74 85 98 97 99 71 57 68 74 88 77 61
93 99 85 83 80 82 84 84 79 76 77 74 98 82 97 100 87 80 68 56 73 75 71 87 77 76 70 91 86 89 96 73 96 90 76 78 77 94 98 98 89 60 54 65 73 87 58
94 99 88 78 90 86 86 81 82 80 76 73 80 83 94 99 81 79 85 71 52 72 87 81 80 80 76 91 92 94 86 72 91 93 98 94 94 97 94 97 82 59 53 68 80 62 59
92 97 89 82 86 81 80 79 77 76 79 74 67 75 87 98 90 70 71 90 94 81 88 83 86 86 93 92 92 90 94 81 80 75 89 88 93 97 98 99 92 50 69 74 58 58 54
90 93 89 77 80 76 78 77 80 71 72 78 77 73 72 95 88 81 77 70 74 76 89 84 84 84 86 94 92 89 87 84 91 93 62 89 74 83 78 76 51 48 53 51 56 62 58

GFSGBSN_925_rhum_021.txt.gz
RH
85 84 77 84 77 81 94 90 88 83 80 79 80 84 86 74 76 91 88 79 71 70 73 72 78 90 100 98 83 58 71 85 85 86 79 76 77 72 73 68 60 60 54 48 46 46 48
89 86 79 77 76 91 92 82 77 75 73 76 80 86 88 87 86 84 83 83 77 75 77 78 81 93 99 88 51 54 66 80 84 84 79 72 73 62 62 58 66 52 52 49 46 46 46
80 85 80 82 76 86 90 77 79 70 76 71 77 80 83 83 83 84 82 82 80 78 80 81 83 98 97 69 57 66 68 73 84 79 87 71 67 60 62 62 53 51 57 54 53 50 52
84 84 81 82 80 84 90 80 80 70 76 67 79 80 81 83 84 85 86 84 84 84 84 83 84 99 91 61 51 60 77 73 70 68 69 67 68 63 59 53 56 62 62 72 52 51 49
87 82 82 78 79 90 85 82 77 72 72 84 82 80 84 86 86 87 88 89 88 87 87 84 88 98 87 58 68 44 65 68 72 83 72 70 68 67 60 72 74 68 83 76 64 50 50
86 84 70 80 90 89 85 83 76 81 82 86 76 74 84 85 87 90 87 89 85 90 87 84 90 97 75 69 54 54 66 64 75 82 81 80 89 83 80 82 87 78 79 76 70 47 50
75 79 75 80 89 87 86 80 74 80 88 90 77 73 75 79 83 84 86 82 81 80 77 83 84 78 64 58 48 55 57 70 80 83 98 87 96 93 81 72 56 64 70 71 61 49 47
84 77 82 70 81 83 80 87 83 87 90 72 76 78 85 87 88 82 75 90 87 89 90 69 81 76 72 57 63 66 52 79 88 96 87 87 90 82 69 65 68 68 74 80 60 50 46
77 78 73 74 80 84 86 76 71 86 74 68 84 93 89 88 88 75 77 84 82 90 90 80 81 83 64 57 66 66 61 71 77 90 83 88 76 68 75 70 75 72 76 66 64 56 49
78 80 74 82 80 83 77 75 79 70 72 83 88 95 95 90 88 86 85 71 90 86 96 94 91 82 64 61 71 52 52 58 67 76 88 80 54 80 72 69 62 72 53 55 58 62 74
81 82 75 79 76 81 81 69 76 83 93 93 86 84 94 89 96 91 72 80 90 77 91 94 90 74 63 70 68 67 51 52 74 70 70 85 63 78 79 65 55 63 52 57 60 72 69
79 78 76 74 76 86 76 75 83 94 99 99 96 93 90 80 89 86 76 82 78 87 96 100 95 95 79 69 69 68 61 48 53 69 64 58 48 52 54 55 50 56 58 67 77 74 90
83 80 80 76 78 73 76 83 92 97 96 87 91 83 82 81 91 89 80 88 89 94 99 100 96 74 76 79 78 75 75 71 89 99 100 74 65 52 53 64 56 58 67 81 74 91 78
87 82 81 77 74 77 80 87 94 99 81 91 83 85 88 85 74 78 80 99 88 98 97 88 76 76 93 76 78 87 76 81 69 72 93 92 92 62 52 60 69 64 63 77 58 82 84
86 83 80 79 76 79 81 87 94 96 83 68 75 85 91 86 73 75 92 96 98 99 97 89 76 96 99 84 82 86 94 77 69 62 80 84 79 59 55 55 55 74 84 62 83 82 92
90 83 80 82 79 80 82 87 95 98 89 71 68 78 83 79 71 74 97 99 100 98 73 70 91 86 95 93 90 83 78 61 60 60 57 68 90 64 62 53 59 62 65 84 91 65 82
92 84 81 83 83 82 83 86 93 98 69 67 73 88 72 73 91 94 99 100 94 75 76 70 90 80 80 80 75 71 75 59 56 60 57 59 73 74 66 74 80 77 87 84 79 87 89
91 86 83 82 86 84 83 85 89 97 69 63 84 90 68 82 97 99 100 98 89 83 77 78 58 70 71 73 80 73 77 66 54 60 65 55 77 96 80 62 61 66 74 77 84 78 96
90 88 86 83 85 84 85 84 87 94 97 77 93 94 74 88 96 98 86 87 89 84 83 72 56 56 63 69 77 66 68 52 57 58 64 57 80 93 86 73 69 73 74 72 76 82 92
90 94 84 86 84 85 85 84 85 87 88 77 93 93 90 93 93 92 86 90 83 70 75 54 58 56 56 60 57 72 63 60 56 54 58 57 75 76 84 73 80 89 79 76 77 98 87
89 95 87 86 85 86 85 85 84 78 76 80 95 98 96 99 88 89 79 85 88 88 71 59 54 53 57 69 69 76 65 62 62 61 63 61 87 90 85 78 78 75 74 79 88 72 90
90 95 93 87 86 86 88 85 83 81 74 83 93 88 85 95 90 89 84 85 82 77 78 73 65 64 56 69 63 79 69 65 62 62 66 66 95 90 91 82 88 95 86 83 78 75 74
92 94 98 88 88 87 86 87 83 82 78 90 89 85 94 84 90 85 76 74 77 68 68 78 72 79 86 80 73 58 54 57 56 69 77 73 92 90 97 74 86 93 84 80 80 76 72
93 94 96 93 83 93 79 86 84 83 78 93 92 99 88 90 93 85 80 70 73 73 69 78 76 74 74 64 64 65 73 65 62 61 66 83 86 90 99 84 93 58 58 64 69 66 71
93 93 96 97 88 85 84 80 83 85 80 71 89 97 97 87 81 89 87 80 69 70 77 79 86 80 79 70 83 77 78 68 74 66 72 67 83 99 98 93 78 58 73 76 73 71 67
94 92 92 94 90 75 86 79 72 79 84 62 76 76 97 98 93 82 96 82 80 78 77 86 79 76 76 89 83 89 92 75 97 95 77 73 73 93 90 94 92 54 63 67 67 76 61
97 96 89 95 90 83 80 86 76 73 83 74 71 72 84 94 82 84 97 96 81 80 82 85 80 78 72 90 92 94 93 77 96 96 100 100 99 96 90 96 84 60 53 71 73 65 54
98 97 93 90 98 94 81 88 83 77 73 72 70 70 76 89 80 80 77 84 86 92 86 78 80 84 94 88 92 93 91 88 89 74 92 91 98 99 98 98 94 64 75 73 60 61 58
91 96 94 89 94 98 88 76 76 84 82 80 74 74 78 91 86 74 65 67 80 76 86 91 80 86 89 90 91 92 94 88 88 90 77 91 80 90 84 76 54 60 60 58 62 68 62

GFSGBSN_925_rhum_024.txt.gz
RH
82 84 80 80 82 78 88 89 88 80 69 76 73 76 81 84 84 87 86 88 90 80 76 77 76 83 93 99 82 60 64 84 78 84 84 82 82 74 72 70 62 64 57 54 49 49 48
84 80 88 87 81 78 88 91 84 81 72 75 72 74 78 79 81 82 83 84 86 79 76 77 78 89 98 98 61 61 46 83 80 90 91 74 78 64 64 67 62 59 55 52 48 47 46
84 83 87 83 76 78 91 94 85 83 70 72 83 86 83 84 85 82 87 85 83 81 78 76 79 88 94 83 59 66 75 75 86 90 84 68 62 62 63 65 57 54 57 56 56 51 51
85 84 82 75 75 85 91 92 88 84 78 79 87 83 76 85 84 87 86 86 87 88 85 80 76 90 92 72 65 64 59 81 81 85 77 66 64 63 62 55 59 67 63 75 54 56 51
86 85 81 80 80 80 85 90 88 82 76 87 89 84 77 80 84 86 89 87 85 87 86 81 77 90 84 72 73 67 60 84 83 80 71 68 68 68 60 74 72 68 88 80 62 51 50
87 80 84 79 70 78 87 85 86 82 85 86 84 77 76 78 81 86 86 86 80 88 86 81 81 99 84 78 66 53 68 83 81 85 79 78 84 84 83 72 85 84 76 76 72 49 55
89 76 84 72 79 79 84 82 73 79 85 84 77 77 86 83 87 88 78 69 80 75 75 79 84 80 71 81 58 66 73 77 83 93 84 75 93 89 75 75 64 67 72 72 64 52 53
87 76 83 75 82 80 81 83 66 73 75 73 77 82 82 90 84 77 70 86 83 84 91 62 66 77 76 72 69 68 70 84 86 98 92 97 94 79 72 67 68 69 77 78 67 51 49
78 80 79 75 78 73 88 72 81 82 89 99 90 87 92 84 84 77 79 76 78 90 91 82 85 88 74 54 68 71 78 82 82 88 90 82 85 79 70 74 76 74 77 74 70 57 52
80 86 80 77 75 75 73 84 89 94 96 98 97 98 83 84 87 81 79 77 92 90 93 82 90 86 79 60 74 55 84 77 86 94 94 84 75 86 90 87 68 76 57 58 58 63 78
81 83 80 77 75 76 88 91 91 97 90 96 95 93 98 80 94 92 80 79 86 80 73 82 87 83 71 66 69 66 76 80 76 87 94 92 89 88 81 79 58 65 54 59 63 72 66
82 84 82 79 76 78 87 88 94 97 92 95 96 90 85 92 89 90 77 76 79 83 100 99 92 91 79 70 75 69 61 56 68 72 66 72 54 58 60 61 53 59 60 67 74 74 84
86 81 84 81 78 80 84 90 91 98 92 95 96 82 83 81 93 80 76 82 86 93 99 99 92 76 78 79 81 75 73 78 91 98 100 71 65 54 54 65 56 59 66 84 66 84 74
86 86 83 83 81 82 84 93 93 97 95 71 72 79 82 88 81 84 82 85 92 93 97 91 77 79 87 77 85 83 74 82 68 79 95 92 92 61 53 60 69 65 60 77 50 74 74
87 85 85 83 84 84 84 90 94 97 84 61 62 66 77 76 78 76 93 96 98 99 98 86 72 88 98 83 83 91 86 79 68 61 80 84 85 60 58 57 56 73 84 63 86 84 88
90 90 85 82 87 85 85 87 93 98 80 69 69 73 73 70 80 87 94 98 100 97 68 74 87 80 95 94 89 95 88 66 66 58 56 66 93 67 61 56 64 62 64 81 89 63 69
90 92 87 85 86 87 86 86 89 96 79 64 71 84 68 78 85 93 99 100 86 75 76 70 90 83 88 83 75 74 82 58 55 62 57 62 74 80 63 71 79 74 86 83 77 86 82
90 94 87 88 87 88 87 87 86 93 90 67 83 87 64 82 96 100 100 98 86 84 78 72 64 69 74 74 77 71 80 61 55 58 64 56 80 97 77 64 63 66 74 75 82 76 94
90 94 90 88 89 88 88 87 86 88 96 90 91 90 59 79 99 95 85 87 88 83 78 73 59 58 61 69 73 66 67 55 59 54 60 61 79 94 85 71 69 74 74 70 74 82 97
92 92 95 89 88 87 88 88 86 84 77 84 92 94 92 89 90 92 84 91 82 71 71 56 61 55 58 61 66 70 66 63 60 54 56 57 74 76 83 72 81 92 82 78 76 96 84
94 91 96 93 89 88 88 88 87 83 74 79 96 96 95 98 91 92 87 87 84 86 74 62 56 56 61 72 72 75 67 65 61 61 62 62 88 88 83 77 79 76 76 84 85 77 82
95 94 96 96 88 91 88 88 86 82 74 85 93 97 77 91 90 89 80 81 86 79 82 68 69 72 59 67 64 80 70 66 66 62 66 68 96 93 93 75 88 97 87 81 82 76 73
95 95 96 98 90 91 92 87 86 82 80 89 90 86 96 84 88 82 80 77 78 71 71 83 73 79 83 82 76 60 54 59 59 71 76 73 92 92 96 77 84 90 87 82 81 77 70
96 95 94 95 95 86 93 88 84 86 69 84 88 99 90 94 94 87 86 80 78 79 71 80 76 71 75 66 66 65 70 68 64 66 66 80 83 91 98 82 86 54 61 64 70 65 71
88 89 93 94 99 84 88 89 84 82 84 73 79 97 98 90 76 89 94 94 73 70 80 79 85 80 79 69 79 76 74 68 75 67 72 67 84 98 97 87 76 58 78 74 71 64 67
80 92 97 92 97 92 76 84 81 80 89 70 73 73 94 89 89 83 82 91 86 79 75 84 80 78 74 86 82 88 79 77 90 95 77 73 79 94 83 81 95 52 64 67 61 75 56
95 96 85 96 95 98 92 86 85 71 81 71 71 71 82 87 75 85 96 92 91 84 83 86 82 80 71 89 90 90 92 79 91 98 99 100 100 92 93 94 83 60 54 66 74 65 51
98 93 95 96 94 78 95 90 80 79 80 86 71 70 74 93 89 75 84 89 84 92 92 81 84 85 92 87 89 92 92 92 89 83 90 90 93 96 89 99 92 65 76 71 61 61 61
99 88 97 90 85 86 92 96 90 82 80 90 83 71 72 87 81 65 63 60 64 68 83 88 84 84 89 90 92 91 92 94 87 94 78 92 82 90 87 79 54 58 65 59 66 66 62

GFSGBSN_925_rhum_027.txt.gz
RH
80 81 82 84 80 81 81 92 95 91 83 83 73 78 79 80 79 80 82 84 85 86 82 83 77 71 83 95 85 67 67 70 78 82 87 79 76 72 76 67 63 63 60 54 50 50 48
79 83 86 79 84 85 78 92 92 92 87 82 69 82 74 83 82 85 83 87 83 84 83 78 70 81 88 97 71 68 68 64 77 84 84 76 69 60 64 65 61 59 55 52 49 48 46
79 83 83 84 82 73 78 88 88 90 88 82 84 89 85 79 82 83 86 85 83 84 86 85 77 74 88 81 69 63 70 73 77 87 85 72 64 60 61 70 58 57 63 56 55 51 49
81 84 83 80 72 79 83 84 90 88 85 85 88 92 96 87 79 83 84 87 87 85 89 86 76 76 77 66 74 75 67 77 81 91 81 72 62 64 61 56 60 66 60 73 55 56 50
83 84 76 81 74 82 86 86 89 71 74 85 86 82 74 82 77 82 87 86 86 86 87 80 76 77 84 76 76 67 62 80 93 92 80 72 62 70 60 71 76 71 83 78 60 56 54
91 86 77 72 71 78 73 90 81 75 74 83 84 85 81 80 83 87 90 90 82 92 87 81 79 92 79 79 74 69 62 87 85 92 82 76 75 84 74 73 79 85 80 77 67 53 60
86 78 82 86 72 74 81 72 81 90 91 95 96 92 86 85 76 76 68 68 78 73 81 76 73 79 78 79 70 76 79 90 89 87 96 82 90 85 67 60 65 68 72 72 66 55 55
88 79 87 77 74 75 83 88 90 91 90 88 91 95 80 84 77 73 64 81 74 70 83 68 64 74 71 84 74 75 84 94 85 94 89 93 89 70 64 67 64 67 73 75 65 52 50
82 83 79 77 75 80 86 87 95 92 92 95 96 95 76 77 82 80 76 79 81 87 93 83 84 61 83 85 73 76 88 92 85 95 81 83 87 69 67 75 75 76 76 77 69 56 53
84 83 80 77 77 79 86 91 95 92 93 97 96 95 94 72 81 83 79 86 91 86 89 93 89 90 86 76 80 72 97 89 92 94 88 91 81 74 73 78 71 82 63 63 59 64 72
86 85 85 80 79 81 86 92 95 92 90 96 98 96 88 74 78 85 83 92 84 71 85 77 90 79 74 70 74 88 90 76 84 91 94 97 88 93 83 82 61 69 56 61 63 69 62
88 88 84 81 82 81 84 94 94 96 70 82 84 81 90 88 82 89 79 76 73 82 95 96 89 88 78 73 78 92 87 89 74 87 84 76 91 82 87 77 71 58 58 65 69 68 72
88 87 82 83 85 81 84 88 97 100 59 58 67 66 72 86 98 86 79 77 86 92 94 100 97 76 74 86 82 79 83 84 92 99 98 74 68 72 65 67 55 57 70 84 65 78 69
89 91 86 85 85 85 84 88 92 99 91 52 60 62 65 67 81 78 76 84 89 92 99 90 78 81 91 82 81 77 75 82 68 79 99 91 96 69 56 62 69 66 64 78 55 58 57
89 89 88 86 85 87 86 87 90 96 99 61 62 61 67 69 74 89 88 96 94 98 98 86 70 90 93 85 82 90 84 78 66 62 80 84 91 62 63 58 58 70 80 58 84 84 78
91 94 88 86 90 88 88 87 88 94 95 72 66 70 68 74 79 93 96 96 100 96 76 70 83 80 93 90 92 83 82 67 69 60 57 67 95 70 63 58 62 62 63 77 83 68 55
91 93 89 88 88 88 88 89 88 91 94 72 69 80 62 75 89 94 99 100 86 78 72 71 87 85 86 85 81 84 84 62 58 62 58 64 74 82 64 70 77 72 81 78 73 77 65
93 91 94 89 90 90 88 88 89 88 96 74 80 86 54 73 94 98 99 98 84 85 76 63 66 70 77 74 75 72 76 62 55 56 64 60 80 92 77 66 63 65 73 67 76 75 88
92 91 96 95 89 92 89 88 89 87 100 92 90 88 54 73 96 96 80 83 87 82 76 68 61 61 61 70 74 66 65 57 58 53 63 61 77 94 84 74 70 74 75 67 71 79 96
96 94 95 97 92 92 90 88 88 85 86 85 92 89 91 92 90 86 91 91 84 72 68 57 62 56 58 64 67 72 67 68 59 51 59 56 72 72 71 68 80 89 82 71 74 87 79
95 96 95 97 94 91 93 88 87 78 76 78 95 96 92 98 89 93 88 85 83 87 76 61 59 56 61 73 73 74 69 70 60 64 62 60 87 86 76 68 81 78 79 82 84 74 78
93 97 94 94 97 93 93 90 86 76 76 82 93 97 86 91 90 90 78 81 83 79 83 68 68 73 58 67 62 79 71 70 70 65 65 68 95 92 87 76 87 95 84 81 79 72 74
93 93 91 92 97 93 91 90 86 82 75 83 83 88 96 86 91 86 84 77 77 76 77 79 72 74 79 81 77 64 59 61 62 72 76 71 93 89 88 76 82 93 84 83 78 78 67
86 82 88 94 95 94 84 90 84 87 66 84 89 99 91 94 93 93 90 92 83 83 72 80 76 69 74 69 67 64 70 71 68 69 64 78 83 90 93 78 86 51 62 67 71 67 70
80 78 84 96 94 95 86 89 89 83 75 71 71 91 94 82 78 88 89 96 89 74 79 78 86 80 79 66 77 77 73 66 76 78 71 62 80 98 95 84 69 62 76 76 75 66 63
95 96 96 94 97 96 91 87 94 88 76 70 71 67 88 87 81 78 76 78 98 85 79 82 82 81 73 85 81 86 90 74 93 94 78 79 74 81 84 87 86 53 67 66 64 81 60
97 90 97 95 97 87 85 93 88 83 86 82 70 68 78 94 82 72 91 86 85 92 91 85 84 83 74 88 88 90 89 75 94 89 97 100 100 97 91 88 81 58 57 66 76 68 51
89 89 93 96 96 92 95 93 99 88 84 88 82 73 73 88 84 70 82 92 87 88 95 84 87 86 90 88 86 88 91 93 90 82 74 82 95 83 76 88 94 63 72 70 60 59 59
87 90 93 94 95 92 96 96 99 96 88 88 88 77 72 83 84 63 60 56 53 65 76 82 96 86 88 89 92 91 92 95 90 84 82 94 80 88 79 77 57 61 59 61 67 64 61

GFSGBSN_925_rhum_030.txt.gz
RH
81 82 87 89 87 82 70 75 85 90 88 89 89 87 86 80 78 82 84 83 86 82 84 80 87 75 70 71 64 72 74 70 81 69 70 66 67 65 64 54 51 48 47 39 37 43 41
78 85 88 77 84 77 77 89 91 90 86 84 88 88 88 77 88 84 86 87 85 82 84 83 79 72 69 75 44 70 82 75 76 64 67 62 52 50 52 56 50 44 45 40 39 40 41
80 90 84 84 75 78 83 76 92 92 82 71 78 87 87 77 89 91 83 83 84 83 85 87 80 70 66 59 70 76 84 81 72 63 64 61 48 53 49 58 44 46 50 45 45 41 38
84 80 80 81 84 76 84 84 77 77 78 87 84 90 86 84 72 80 82 84 88 87 86 83 79 72 69 51 59 82 76 67 73 67 65 70 51 46 45 43 48 47 43 56 34 38 39
86 79 81 81 71 79 81 78 87 89 94 92 91 95 95 77 74 82 84 85 86 85 86 73 74 63 60 63 73 76 84 69 80 74 73 69 56 53 52 52 56 46 39 40 45 44 34
88 79 77 83 75 80 85 86 85 94 88 91 89 94 97 86 79 75 73 75 83 90 87 80 73 74 57 59 66 79 78 77 77 84 80 74 69 62 49 48 49 52 40 44 37 42 48
89 79 82 79 77 78 86 90 94 94 88 93 94 94 92 88 83 68 64 75 62 68 69 49 47 65 61 60 70 66 83 83 74 76 87 71 80 75 48 43 42 42 43 41 43 48 46
82 82 79 79 78 80 87 90 91 92 86 91 96 88 89 80 74 68 64 61 73 75 62 52 57 63 64 68 71 65 80 91 89 88 81 92 84 50 41 48 49 48 48 48 51 44 43
84 88 80 80 79 80 84 91 92 91 89 93 97 88 70 86 76 77 77 81 82 87 79 79 70 72 66 72 69 72 71 93 80 90 81 93 67 45 52 51 54 52 51 59 47 48 43
86 88 83 82 82 81 86 92 95 97 92 92 94 87 74 79 73 88 75 98 90 86 95 95 92 88 90 87 87 87 92 94 87 96 87 93 79 53 49 58 47 57 53 56 55 54 46
88 90 83 85 84 82 85 90 93 99 96 86 77 65 66 71 82 74 93 91 83 74 86 78 93 85 77 72 81 95 96 82 88 95 92 97 91 66 63 55 49 53 51 51 52 54 52
89 91 85 87 85 84 85 88 90 96 99 90 67 62 64 74 87 91 80 74 75 94 91 99 92 84 82 69 75 80 89 81 73 86 87 93 84 85 86 69 51 46 48 49 50 52 70
90 89 87 86 87 87 86 86 89 93 99 100 77 64 60 64 72 75 73 73 94 86 97 99 92 74 65 80 86 80 91 90 88 99 100 97 98 84 87 87 62 52 58 78 76 85 57
92 93 88 87 88 88 87 87 88 91 98 100 78 64 67 68 73 78 80 79 88 97 100 86 68 64 78 66 93 86 79 84 60 73 81 90 95 97 89 74 89 58 57 62 56 47 40
92 93 90 90 91 89 89 87 88 89 95 98 69 72 67 70 76 86 80 97 97 100 97 66 57 68 74 69 68 66 66 64 56 55 74 78 91 63 58 52 53 62 74 45 65 61 55
92 90 94 90 94 96 93 89 88 88 96 95 80 77 72 76 82 86 83 97 97 90 74 57 67 64 72 74 64 61 65 58 57 52 49 60 92 62 57 52 50 53 47 66 74 68 47
94 90 94 95 91 92 96 92 88 87 97 85 80 68 66 72 88 77 100 100 81 70 66 60 67 65 68 73 64 66 62 58 50 53 46 51 60 76 59 60 58 59 61 58 50 55 45
94 91 92 97 94 91 93 92 89 86 97 80 74 81 61 72 82 84 94 89 79 72 64 55 56 60 60 62 64 63 53 54 46 44 51 53 65 80 68 58 54 53 53 44 49 69 62
96 96 95 94 95 90 92 92 90 85 98 99 77 76 57 80 78 78 68 70 73 65 64 55 56 54 54 58 63 57 58 52 49 46 50 48 66 88 85 66 60 65 58 52 54 62 77
97 96 92 91 95 94 93 92 89 84 91 91 80 86 70 71 76 71 76 73 69 66 59 52 55 49 50 53 51 58 59 61 51 47 58 46 58 67 54 70 63 80 65 57 58 69 53
93 96 92 89 93 94 93 91 88 82 75 88 84 90 78 87 77 76 78 76 71 70 65 54 54 51 48 56 56 58 60 59 55 60 52 50 91 80 58 60 70 66 65 65 77 55 60
87 84 84 91 93 96 92 91 86 78 71 82 85 86 71 79 77 73 72 72 75 71 75 58 56 54 50 50 45 57 55 55 55 60 53 56 92 85 81 69 72 80 64 61 62 58 55
83 76 81 92 94 88 95 92 88 83 59 81 85 87 91 78 74 70 73 72 72 71 68 71 61 59 60 61 60 54 46 44 47 54 58 59 87 83 76 64 66 74 65 63 62 59 55
74 85 85 94 95 95 89 84 94 85 67 76 90 98 78 76 73 74 77 82 77 77 77 69 67 60 61 52 50 46 48 52 51 55 47 61 76 83 81 68 77 52 51 51 57 51 53
89 96 88 96 88 95 88 83 91 91 75 65 70 88 81 66 67 67 75 86 77 66 71 75 74 73 62 60 58 60 61 61 68 66 56 50 61 85 82 72 53 49 63 60 62 58 48
88 84 81 96 90 94 91 91 89 90 86 78 68 63 81 80 57 66 66 69 86 76 65 74 75 72 65 68 65 71 65 56 73 77 64 61 54 60 70 78 59 46 60 56 54 68 52
79 84 90 95 96 88 93 92 97 96 88 87 70 70 76 71 51 68 67 68 71 88 82 71 78 78 68 72 71 69 65 54 72 79 88 78 80 76 73 68 50 38 53 57 67 60 49
80 85 83 91 94 88 91 92 94 96 92 87 84 77 73 76 61 55 65 64 53 63 84 80 81 82 85 85 78 72 66 64 67 58 63 66 75 82 74 78 79 47 58 54 49 51 49
92 87 82 85 91 91 89 92 96 99 96 92 88 79 78 80 67 60 54 51 50 54 66 69 92 84 73 79 75 73 72 73 66 72 60 73 57 56 54 52 40 49 50 51 54 54 54

GFSGBSN_925_rhum_033.txt.gz
RH
80 84 86 85 80 78 78 83 86 89 87 86 82 79 86 90 85 82 89 87 85 84 82 86 77 80 65 55 43 80 84 94 92 74 66 51 48 61 59 45 37 43 28 27 26 35 31
82 83 77 82 78 78 80 78 78 80 82 80 85 88 89 90 76 77 92 78 85 82 83 84 85 76 60 67 32 54 64 83 88 88 52 44 41 48 48 41 40 40 36 33 30 37 36
88 84 80 80 86 77 82 80 86 88 92 89 87 90 94 82 77 71 77 82 87 85 83 84 86 72 56 52 44 76 67 70 78 90 44 43 37 48 42 49 38 38 41 39 34 35 35
88 82 80 82 74 80 84 84 88 91 90 82 87 90 92 86 79 89 85 83 87 89 88 85 85 62 60 42 43 53 91 84 66 82 42 47 39 40 43 36 43 45 44 50 36 39 34
88 82 82 82 76 78 83 87 89 91 81 82 92 93 87 85 86 85 80 82 90 88 88 74 71 58 51 48 47 45 92 73 65 81 48 57 46 49 43 48 52 45 45 40 34 32 35
83 83 79 82 79 79 88 94 89 92 83 89 93 94 89 89 74 68 68 65 75 80 81 70 63 63 46 49 54 81 87 78 93 62 77 75 66 50 46 42 48 41 38 28 29 41 36
86 85 83 80 81 79 90 94 90 92 88 92 92 94 84 86 67 62 71 71 63 64 56 46 42 50 59 64 66 79 81 98 68 72 85 76 76 68 44 32 25 23 32 27 24 38 41
87 86 84 81 81 81 88 92 94 95 92 96 84 71 92 80 68 62 65 54 67 71 55 41 44 52 56 62 74 70 82 89 72 79 51 85 79 43 32 30 36 36 35 36 32 36 40
88 87 83 83 83 83 84 90 93 94 96 94 90 60 66 71 71 67 65 75 84 77 80 79 67 67 70 72 65 82 76 88 80 62 68 73 61 41 42 38 43 36 37 35 43 43 37
89 88 86 85 85 85 84 84 91 94 98 98 95 75 62 62 77 72 67 88 87 85 99 96 83 79 72 79 92 86 86 80 89 64 75 76 60 50 50 48 35 42 33 43 50 48 35
90 87 87 88 89 86 86 84 85 91 98 98 96 89 73 68 68 65 80 83 80 75 93 95 91 81 85 86 78 88 89 89 92 92 94 96 82 56 51 42 34 46 43 46 50 52 50
92 92 89 90 90 86 87 86 86 87 92 99 99 91 69 75 71 78 82 77 71 99 94 99 91 90 92 81 78 85 85 84 81 88 84 94 86 78 71 44 36 43 46 47 47 49 71
93 92 92 91 90 94 92 88 87 88 90 99 100 94 75 79 59 77 79 66 98 90 96 97 86 80 72 80 84 81 95 95 98 100 100 99 97 92 80 61 48 46 51 75 77 85 63
93 91 95 89 91 89 96 98 88 89 91 100 94 87 76 74 81 84 75 82 93 91 96 71 68 56 88 84 89 76 91 94 66 72 100 100 98 97 88 78 69 57 50 63 63 58 48
93 90 95 94 94 91 94 96 92 89 89 98 76 72 74 72 84 85 72 97 95 100 82 56 48 62 78 59 71 72 56 62 68 55 85 94 97 89 90 70 56 70 72 42 55 38 43
94 91 94 95 95 94 90 90 94 89 82 98 76 63 60 76 86 80 74 96 89 78 65 48 56 52 61 57 52 47 49 48 53 46 42 55 87 89 87 72 67 66 47 71 73 75 40
95 95 94 95 96 94 92 92 90 88 78 80 71 58 70 82 92 68 92 88 63 58 56 53 52 51 56 59 48 46 49 51 43 44 40 45 54 71 70 68 64 59 65 53 51 50 51
95 96 95 90 95 96 93 93 90 88 85 86 70 81 71 84 69 61 74 76 76 58 51 47 47 48 47 48 50 48 46 46 40 38 45 47 58 79 66 52 47 46 45 42 51 63 46
96 96 93 90 92 96 94 92 90 87 88 98 64 57 72 74 70 56 57 58 59 52 52 45 48 47 45 47 54 50 47 45 43 41 42 44 64 88 78 60 53 59 50 46 45 54 69
92 90 92 89 91 95 94 92 90 85 86 90 67 86 55 51 58 48 54 53 56 59 49 45 46 42 45 46 40 51 52 52 44 42 53 40 49 68 58 72 52 67 54 51 55 68 45
86 85 82 90 92 95 95 93 90 80 74 84 66 82 72 75 59 61 63 61 56 57 54 46 48 44 41 47 44 48 49 52 48 57 45 44 91 77 49 54 62 60 54 55 71 54 50
85 75 86 91 94 94 95 96 93 68 68 70 79 92 68 60 60 60 64 60 62 58 60 48 50 43 40 42 38 45 46 46 47 49 47 48 86 77 83 58 61 69 56 51 53 52 44
80 80 95 94 94 96 90 85 93 75 60 56 67 74 79 66 59 57 58 62 64 61 60 57 52 46 47 45 44 42 36 35 39 47 51 53 82 87 72 57 59 69 57 54 51 48 44
87 83 92 94 95 96 95 94 93 89 74 60 70 87 77 59 55 60 64 67 66 67 69 56 55 54 54 42 40 38 39 41 42 42 40 53 70 77 81 68 81 52 44 41 46 45 44
80 86 87 94 95 96 95 96 88 90 83 76 77 64 61 52 39 48 61 67 62 56 62 65 63 61 46 52 52 57 56 53 54 48 46 40 50 71 78 63 45 35 42 52 53 52 42
78 91 84 86 90 88 89 96 98 92 90 78 84 82 60 60 49 55 52 52 69 59 57 62 64 61 59 58 55 61 60 47 61 62 52 47 44 58 61 68 57 46 49 43 44 62 42
74 92 80 77 86 92 90 95 88 88 88 86 83 75 69 63 35 52 48 61 58 67 69 60 67 71 63 62 65 58 54 43 56 63 70 67 60 70 62 62 47 33 53 48 69 63 48
77 89 80 80 88 90 86 87 89 87 90 93 83 77 69 69 58 50 44 48 39 45 63 72 71 74 79 77 66 60 52 48 47 46 54 59 64 64 57 66 72 38 54 57 49 46 46
89 94 90 83 81 86 90 89 92 94 94 91 88 82 82 81 64 63 59 54 48 44 55 56 80 73 75 72 57 53 51 50 50 56 42 58 45 48 47 48 35 37 38 44 46 48 49

GFSGBSN_925_rhum_036.txt.gz
RH
88 88 81 80 79 78 80 81 85 88 89 90 82 87 87 95 89 89 88 83 88 87 84 78 73 76 74 62 54 57 48 66 80 82 60 68 49 63 71 56 43 50 38 31 28 36 33
85 87 81 80 78 83 85 82 86 91 91 76 79 86 88 92 80 87 89 75 83 71 83 84 85 81 66 70 39 49 70 85 85 81 54 57 43 46 55 48 47 40 40 35 29 36 35
86 84 81 82 76 84 86 86 89 92 83 83 86 83 91 86 74 88 80 69 74 77 84 84 85 76 62 53 49 76 68 72 81 82 56 50 39 44 52 56 40 38 48 40 35 39 38
85 85 83 79 79 82 84 87 91 92 89 88 89 90 92 84 78 86 88 85 87 89 88 88 85 67 63 44 43 42 69 79 67 78 79 53 47 39 51 43 44 48 45 59 41 39 36
87 85 88 82 79 77 87 89 92 92 88 89 93 95 93 87 84 73 73 71 76 90 87 74 75 64 57 44 42 40 44 69 65 78 76 74 56 46 56 62 68 54 60 58 45 38 39
88 86 81 82 80 79 84 87 90 93 90 94 95 90 90 84 64 62 58 62 72 80 78 66 57 61 48 42 41 39 47 83 72 86 82 95 75 61 63 73 89 70 56 48 48 43 43
89 87 85 84 82 82 81 90 92 90 94 90 83 83 90 74 67 60 75 71 74 69 58 54 53 48 45 56 51 56 79 89 74 86 95 87 81 78 64 52 48 38 44 42 33 39 44
90 89 86 86 85 84 83 82 88 95 96 98 94 90 92 76 67 63 66 52 65 69 71 42 40 42 48 61 73 71 76 89 86 96 71 88 88 54 47 40 39 33 39 39 30 39 41
91 90 88 89 91 86 85 84 84 88 95 99 97 89 90 91 69 66 68 72 76 74 94 76 66 66 70 82 81 83 78 83 91 89 79 78 61 45 40 40 40 40 41 37 43 45 39
92 92 90 86 90 91 90 86 86 85 87 97 100 99 90 77 82 66 70 83 83 81 100 95 85 84 77 91 94 90 91 86 86 72 65 81 54 52 46 43 35 47 33 34 50 55 58
93 93 92 90 92 91 97 99 89 87 88 89 98 99 97 68 87 61 73 78 70 74 94 90 87 72 81 92 91 96 92 69 86 78 85 96 78 69 58 49 37 40 44 47 51 57 58
94 93 94 91 87 87 89 96 100 90 90 92 97 98 82 76 78 70 78 76 76 99 97 96 88 79 85 71 75 77 80 74 81 78 82 93 79 88 84 54 39 42 52 52 50 56 89
95 93 94 94 95 92 87 87 89 95 90 92 99 100 93 76 70 74 78 75 99 93 97 94 93 88 70 75 79 77 94 96 98 98 100 95 98 85 76 71 52 48 63 89 94 95 87
94 94 94 91 96 94 91 91 87 92 91 82 76 77 87 73 73 81 78 95 88 83 97 69 75 68 76 74 81 88 96 100 91 85 100 98 98 97 86 80 70 59 59 83 73 90 73
95 95 95 93 97 96 95 91 90 92 88 81 67 77 73 73 82 81 90 88 88 98 74 57 51 81 85 66 65 90 90 95 88 83 98 99 100 94 87 80 62 71 84 46 70 40 76
95 96 96 93 91 96 94 90 90 89 82 84 91 64 59 70 84 84 91 84 80 74 62 50 59 51 62 55 57 61 66 70 70 59 50 63 98 95 93 81 73 64 48 75 93 78 62
95 94 96 93 93 93 95 91 91 89 81 78 90 66 76 82 87 86 94 86 60 53 52 55 49 46 51 54 51 46 53 48 42 44 42 50 67 99 95 99 92 82 83 67 62 70 85
96 95 92 91 92 94 95 93 92 88 83 87 83 92 74 87 90 70 86 65 68 52 49 46 46 48 47 46 45 46 53 51 39 39 48 50 65 93 93 58 50 67 67 63 85 75 64
91 90 87 89 93 95 95 95 93 87 86 93 78 64 74 75 83 63 57 55 54 51 49 44 46 46 44 43 51 48 52 45 42 46 49 49 76 94 78 66 55 63 54 55 55 74 81
83 86 89 92 93 95 94 94 94 83 86 94 74 89 75 72 58 62 58 53 59 59 50 44 44 42 45 45 39 52 55 51 44 47 48 46 56 78 85 73 67 74 61 57 67 90 61
76 89 95 93 92 96 95 94 94 55 71 89 64 83 69 96 70 65 58 58 54 60 54 45 48 45 42 47 44 48 53 56 50 58 46 52 88 74 50 54 68 65 61 60 76 67 71
81 93 90 94 93 96 96 95 95 57 53 61 82 90 75 70 59 61 70 58 61 57 58 48 52 42 39 44 41 49 50 48 49 52 50 55 93 83 81 55 59 72 64 55 60 60 58
82 76 90 94 94 96 96 95 96 69 61 52 59 67 84 65 58 58 69 66 62 64 58 54 59 57 47 66 56 48 39 37 42 53 56 61 91 92 84 57 61 82 68 62 57 53 54
83 83 88 95 96 96 97 96 97 90 71 67 72 84 71 67 52 63 62 62 65 66 72 59 59 60 53 42 41 38 38 39 43 44 45 61 79 92 94 76 95 54 46 47 53 50 49
74 86 85 92 93 95 96 96 96 96 76 75 76 73 67 59 39 45 51 55 60 57 64 64 69 66 49 56 58 58 60 54 50 47 49 47 65 88 94 89 61 48 53 53 56 55 44
70 84 92 77 80 89 91 96 94 98 82 80 79 76 66 67 50 43 48 42 68 70 57 64 63 62 60 74 66 71 82 56 71 68 54 49 50 65 73 82 75 62 48 42 46 82 46
66 84 88 80 79 80 87 94 85 85 87 85 86 70 75 69 45 50 60 75 60 70 75 60 68 68 65 76 71 71 71 43 61 58 73 75 70 85 78 68 62 58 56 48 84 73 47
74 85 93 84 81 77 86 89 91 93 90 93 87 74 74 72 64 55 47 51 50 45 64 63 74 73 72 83 78 73 67 55 50 46 62 72 79 77 70 74 82 57 60 71 61 54 55
79 90 92 90 84 85 86 83 77 77 94 99 92 94 84 87 69 66 67 63 59 51 59 58 69 73 94 96 81 69 64 52 54 67 48 66 58 63 59 62 47 43 48 52 51 56 55

GFSGBSN_925_rhum_042.txt.gz
RH
87 86 84 83 81 78 88 91 91 92 81 84 83 90 91 89 88 87 90 85 86 78 77 70 67 81 81 71 71 54 72 58 66 74 88 67 86 86 86 74 68 61 59 55 63 75 78
89 87 85 85 83 82 84 90 92 93 83 83 80 82 87 87 87 87 90 89 85 71 84 85 73 77 75 85 54 59 65 58 70 77 86 67 75 73 73 70 69 59 51 56 69 72 72
89 87 87 86 85 84 79 89 90 90 89 87 84 87 86 86 85 86 88 85 81 74 88 85 81 70 78 73 51 45 63 65 71 72 79 70 55 70 64 68 56 51 62 55 54 55 55
90 88 88 88 86 84 83 78 86 85 94 90 90 92 89 88 86 86 67 84 88 87 78 69 79 77 81 43 45 45 53 77 78 78 65 69 55 58 61 56 65 56 56 70 51 50 46
90 88 88 89 88 84 87 84 80 84 92 95 95 92 92 93 86 78 88 73 72 84 85 63 71 73 74 46 48 41 45 63 77 83 82 65 62 70 59 73 86 76 80 68 58 47 47
92 88 89 87 86 90 90 91 85 82 81 92 98 98 95 76 83 86 80 75 71 74 70 75 68 74 54 57 50 44 43 57 75 87 88 82 85 85 76 84 83 78 77 58 56 52 48
94 91 92 89 89 86 81 88 87 93 84 84 92 91 98 94 72 74 73 71 74 72 68 66 62 62 50 44 59 70 67 68 78 82 96 92 86 86 78 72 60 64 57 64 54 46 49
96 92 87 90 90 90 90 87 83 81 92 88 89 92 98 99 72 64 66 68 73 70 83 61 62 56 52 60 73 78 59 81 88 90 92 96 86 69 66 66 63 61 62 60 47 44 51
97 94 89 93 92 96 92 90 88 88 84 94 90 93 98 100 90 71 68 80 78 75 89 77 67 72 83 76 74 85 69 79 85 85 94 88 74 67 64 71 74 60 67 56 51 48 43
97 96 89 94 94 96 92 92 89 89 90 93 93 92 96 99 86 72 76 71 74 79 98 97 86 87 76 81 88 81 73 83 89 83 85 86 66 71 69 68 60 69 45 43 55 59 72
96 97 93 93 87 87 95 92 89 90 91 94 94 94 98 99 79 83 71 67 76 81 96 94 95 87 82 86 86 89 78 77 87 89 89 95 81 72 72 64 46 54 45 59 56 63 60
97 96 95 94 87 90 90 94 89 90 93 95 93 99 99 85 100 77 67 75 80 88 94 100 95 94 91 82 85 89 84 78 74 85 84 93 84 83 70 60 47 54 59 64 70 68 82
97 96 98 93 93 92 83 93 88 92 93 93 92 100 98 85 84 76 75 84 91 92 79 90 95 99 92 97 92 77 83 97 97 99 100 97 96 83 83 66 57 57 65 92 90 92 82
95 97 93 96 90 88 88 85 90 89 91 86 74 79 68 71 77 78 80 93 88 82 100 74 78 89 99 95 94 92 96 98 86 82 99 98 99 93 86 76 72 64 59 85 83 98 81
90 98 92 88 88 86 93 86 86 90 88 86 70 80 85 76 77 78 87 93 80 94 75 79 66 80 99 94 92 89 89 89 83 84 87 96 98 88 84 89 78 73 81 56 72 70 86
91 95 91 91 91 95 94 92 92 91 91 89 84 84 79 76 80 84 88 90 88 78 75 73 71 54 69 82 95 96 92 77 83 75 74 83 98 96 86 83 74 72 59 80 91 85 74
84 93 91 92 94 96 93 96 93 91 92 79 87 86 83 80 81 89 93 90 81 68 68 63 66 58 58 59 69 75 87 81 76 76 71 74 80 99 92 97 88 86 95 81 79 79 87
80 91 92 93 95 96 96 94 95 91 91 80 92 95 85 85 99 97 92 71 65 59 54 60 53 54 56 53 60 71 71 65 68 62 83 63 91 100 98 84 72 74 85 66 91 90 84
66 92 96 96 94 94 96 96 96 89 80 88 98 91 86 91 96 83 65 67 64 62 57 55 54 51 49 51 66 64 62 53 61 58 68 61 88 98 98 90 84 96 88 72 68 78 82
71 92 96 94 93 95 96 97 80 65 55 81 92 87 84 94 88 78 70 62 71 59 58 50 51 47 50 48 54 66 65 55 50 50 49 51 75 77 81 70 84 98 89 82 80 92 72
70 84 96 96 93 98 97 95 63 45 47 74 93 91 83 92 76 76 72 65 65 66 62 51 53 51 53 54 55 69 65 60 54 51 52 56 80 72 62 68 71 73 77 80 94 69 83
72 77 91 96 94 96 97 96 65 51 28 61 93 90 91 92 82 74 78 81 75 74 69 68 64 68 59 73 64 63 62 62 61 57 56 70 92 75 75 61 65 70 71 75 78 78 78
72 73 87 91 94 96 96 96 90 65 48 69 79 80 97 74 61 75 77 75 76 78 64 69 73 68 70 66 62 61 50 51 51 63 68 74 88 88 83 68 66 76 70 70 70 64 67
76 78 79 79 95 94 84 96 95 85 66 66 83 90 85 76 57 58 48 52 56 71 78 71 79 66 66 72 61 51 51 57 57 57 63 80 80 88 95 75 89 53 49 51 59 60 56
76 78 72 74 85 90 94 96 95 82 77 76 72 82 91 72 62 43 51 54 69 76 74 77 79 76 80 69 69 71 76 58 57 58 63 66 82 93 94 96 69 56 58 63 67 60 52
71 77 78 75 80 85 89 88 94 82 75 76 81 73 88 79 74 62 59 75 84 90 81 78 69 66 72 88 81 81 91 68 75 65 60 60 60 80 92 94 89 52 50 45 50 74 51
63 68 81 81 80 81 81 81 94 78 79 78 83 79 75 91 75 68 72 71 63 59 71 72 62 80 73 90 89 86 82 62 81 83 80 77 75 88 88 83 74 50 48 50 71 61 61
64 75 89 91 80 80 76 78 91 85 83 77 86 87 78 94 88 66 62 67 72 72 79 70 80 83 87 87 87 82 79 67 64 63 75 74 84 90 85 94 88 52 58 69 60 58 60
68 77 82 81 84 90 80 78 87 93 86 83 83 87 78 90 84 79 71 71 71 65 73 75 70 88 94 96 95 98 92 70 72 79 64 73 67 78 77 74 48 53 54 53 57 59 57

GFSGBSN_925_rhum_045.txt.gz
RH
90 86 88 85 87 84 79 87 90 95 86 84 83 83 84 84 83 88 90 88 87 85 87 76 68 82 79 80 69 57 58 59 68 70 82 70 87 75 68 88 79 77 61 50 74 75 72
90 88 88 85 84 85 83 77 86 83 95 89 87 87 86 86 84 85 89 87 85 74 84 76 77 78 79 95 58 54 58 60 65 72 80 67 80 62 71 80 82 71 60 70 76 73 71
91 90 89 87 87 87 88 85 78 86 89 90 92 90 90 89 87 87 87 88 87 88 88 86 69 70 75 73 54 48 68 68 65 74 79 74 64 76 68 77 62 67 75 86 85 76 83
92 91 85 86 83 87 89 81 88 78 84 90 93 97 91 92 91 89 90 86 76 78 86 82 86 72 81 45 53 46 59 75 74 75 79 80 58 66 64 60 68 71 74 89 74 75 70
94 92 89 89 87 85 79 83 92 94 83 78 90 96 98 93 94 80 88 90 72 72 88 71 70 72 68 50 60 44 45 74 82 85 85 86 61 70 64 82 87 74 89 77 67 58 66
95 93 89 90 86 89 88 82 82 81 93 85 82 88 98 96 95 86 73 69 78 68 71 76 74 70 52 56 49 50 51 63 82 90 98 78 83 87 82 85 85 87 86 71 66 57 70
96 94 92 89 92 87 89 88 88 86 83 85 90 87 96 94 96 83 64 72 71 66 67 67 65 63 52 44 59 72 58 60 75 84 96 85 89 93 85 66 60 69 65 71 54 51 56
96 96 92 90 93 89 92 92 92 86 88 83 89 88 93 96 97 86 65 72 73 69 80 63 64 62 59 70 77 75 55 76 85 95 92 92 84 74 70 68 65 67 66 67 51 49 53
97 96 91 91 91 87 92 93 90 91 87 85 89 91 91 95 98 78 68 72 79 76 89 76 70 76 84 77 79 83 66 80 90 96 92 98 76 67 70 74 72 65 70 61 60 51 47
97 97 92 90 88 88 85 90 91 86 88 89 92 91 92 92 90 75 77 74 75 77 97 92 83 86 78 81 87 72 76 80 94 96 91 96 70 71 76 76 72 76 49 50 57 62 76
92 98 91 91 90 88 88 85 91 88 90 89 93 93 95 92 82 85 71 71 75 78 96 97 91 83 81 82 82 81 77 80 92 92 90 97 87 81 80 70 55 62 48 50 58 65 59
78 97 91 94 89 87 86 87 87 89 88 89 93 94 97 97 98 79 69 72 80 85 94 99 91 90 86 77 81 80 76 81 82 85 88 94 81 72 71 56 48 55 60 64 71 67 88
75 92 94 93 92 87 86 89 86 87 90 93 94 99 99 89 85 76 76 83 93 92 76 100 98 87 81 89 82 78 78 95 98 99 99 97 93 82 80 69 56 52 66 94 94 93 88
68 92 95 88 87 91 91 91 88 91 91 96 95 85 97 80 78 77 80 85 90 78 99 78 94 90 92 83 72 75 75 93 89 91 93 100 99 94 87 71 72 66 61 88 86 97 80
68 84 94 92 91 94 92 90 93 91 90 96 88 84 86 76 80 80 80 92 79 85 72 82 99 100 100 87 67 71 75 79 86 84 92 96 100 86 87 85 72 72 76 54 77 76 88
65 87 93 90 94 97 95 93 93 91 93 97 86 83 86 81 79 83 89 88 87 73 73 76 72 66 99 89 78 88 89 77 84 76 70 77 98 96 85 77 75 70 62 76 90 80 81
63 83 93 94 96 96 91 92 92 92 94 84 91 92 89 82 82 91 95 94 80 69 70 65 67 60 66 97 89 86 84 78 68 80 73 77 78 98 87 94 91 78 90 83 78 78 78
66 82 96 96 95 96 96 97 94 93 89 77 88 96 87 86 100 95 94 76 64 60 61 61 55 56 58 56 74 72 92 80 70 70 80 68 80 94 92 84 74 77 85 78 90 87 87
60 83 95 96 96 96 96 96 95 94 70 81 95 93 92 98 98 87 70 68 66 65 60 56 57 54 50 53 72 66 65 62 72 70 78 71 91 98 95 94 87 95 90 78 73 80 87
64 79 88 95 97 94 96 92 94 91 52 81 91 92 88 98 93 84 83 66 71 60 59 54 54 49 50 52 63 71 68 57 57 55 54 54 79 77 81 70 86 97 88 86 76 98 80
73 77 75 92 97 96 95 77 71 81 53 69 94 95 85 96 84 80 75 81 70 62 66 58 57 58 54 55 60 74 68 61 56 54 63 60 81 80 68 66 82 88 86 82 90 76 86
68 67 70 95 96 78 73 83 74 52 37 68 91 92 91 90 75 76 79 83 82 76 76 70 71 70 64 72 66 71 66 63 58 58 62 69 89 73 76 62 70 75 78 87 85 76 72
64 67 74 88 87 71 75 91 92 64 50 70 83 85 93 68 56 78 70 81 72 76 70 75 82 68 70 68 65 62 55 54 54 64 72 73 88 87 84 78 66 73 65 72 78 73 76
66 70 74 78 74 73 75 80 94 92 70 69 88 88 78 65 56 47 50 50 62 72 77 72 84 73 71 80 71 54 58 61 60 62 68 78 79 86 93 77 91 56 45 56 63 63 67
70 71 72 68 66 74 72 75 80 96 80 76 80 82 81 73 70 50 56 73 72 74 77 83 81 77 86 72 70 72 77 62 59 63 68 66 82 93 93 96 71 49 58 61 62 58 54
73 75 74 68 68 70 69 76 73 75 76 78 81 79 84 73 83 72 67 72 79 72 77 71 63 59 74 86 82 81 90 71 77 71 60 64 62 80 93 94 91 52 56 48 51 76 51
71 80 79 70 69 69 66 72 72 75 79 80 86 83 74 89 81 76 82 76 63 61 65 68 58 82 77 89 88 90 86 64 84 79 84 81 80 94 89 89 79 55 49 52 70 57 64
66 79 82 73 76 72 66 74 79 78 75 78 91 80 79 93 82 74 71 75 74 74 72 66 80 81 89 88 89 84 86 74 70 66 73 80 87 87 86 93 91 47 58 69 60 64 62
69 78 81 78 86 79 71 70 82 81 75 75 80 84 82 83 80 82 73 70 72 65 77 74 72 89 92 92 91 94 94 83 75 79 65 76 67 74 80 79 52 48 61 52 60 64 59